Mayport NS, FL

6:20 PM EDT on August 17, 2017 (GMT -0400)
Mayport Naval Station / Adm. David L. McDonald Field

Weather History for KNRB - October, 2011

Change the Weather History Date:

Saturday, October 1, 2011

  Actual Average Record
Temperature  
Mean Temperature 69 °F -  
Max Temperature 77 °F 80 °F 90 °F (2012)
Min Temperature 61 °F 70 °F 57 °F (2001)
Cooling Degree Days 4    
Growing Degree Days 19 (Base 50)    
Moisture  
Dew Point 46 °F    
Average Humidity 43    
Maximum Humidity 62    
Minimum Humidity 29    
Precipitation  
Precipitation 0.00 in - - ()
Sea Level Pressure  
Sea Level Pressure 29.90 in    
Wind  
Wind Speed 6 mph (North)    
Max Wind Speed 10 mph    
Max Gust Speed 17 mph    
Visibility 10 miles    
Events      
Averages and records for this station are not official NWS values.
T = Trace of Precipitation, MM = Missing Value Source: NWS Daily Summary

Daily Weather History Graph

Daily Weather History Graph

Search for Another Location

Airport or City:

Trip Planner

Search our weather history database for the weather conditions in past years. The results will help you decide how hot, cold, wet, or windy it might be!

Date:

Astronomy

Oct. 01, 2011 Rise Set
Actual Time 7:19 AM EDT 7:11 PM EDT
Civil Twilight 6:55 AM EDT 7:35 PM EDT
Nautical Twilight 6:27 AM EDT 8:03 PM EDT
Astronomical Twilight 5:59 AM EDT 8:31 PM EDT
Moon 12:00 PM EDT (10/1) 10:31 PM EDT (10/1)
Length of Visible Light 12h 40m
Length of Day
11h 52m
Waxing Crescent, 24% of the Moon is Illuminated
Oct 1
Waxing Crescent
Oct 3
First Quarter
Oct 11
Full
Oct 19
Last Quarter
Oct 26
New

Hourly Weather History & Observations

Time (EDT) Temp. Dew Point Humidity Pressure Visibility Wind Dir Wind Speed Gust Speed Precip Events Conditions
12:52 AM 75.0 °F 54.0 °F 48% 29.82 in 10.0 mi NNW 6.9 mph - N/A   Partly Cloudy
1:52 AM 73.9 °F 46.9 °F 38% 29.83 in 10.0 mi North 5.8 mph - N/A   Clear
2:52 AM 72.0 °F 48.0 °F 43% 29.84 in 10.0 mi North 9.2 mph - N/A   Partly Cloudy
3:52 AM 69.1 °F 46.9 °F 45% 29.83 in 10.0 mi Variable 4.6 mph - N/A   Clear
4:52 AM 66.0 °F 46.9 °F 50% 29.84 in 10.0 mi NNW 6.9 mph - N/A   Scattered Clouds
5:52 AM 64.0 °F 46.9 °F 54% 29.86 in 10.0 mi Variable 4.6 mph - N/A   Clear
6:52 AM 62.1 °F 46.9 °F 58% 29.88 in 10.0 mi Variable 4.6 mph - N/A   Clear
7:52 AM 61.0 °F 48.0 °F 62% 29.90 in 10.0 mi NNW 6.9 mph - N/A   Clear
8:52 AM 64.0 °F 48.9 °F 58% 29.91 in 10.0 mi NNW 6.9 mph - N/A   Clear
9:52 AM 68.0 °F 48.0 °F 49% 29.92 in 10.0 mi North 10.4 mph 16.1 mph N/A   Clear
10:52 AM 71.1 °F 48.9 °F 45% 29.94 in 10.0 mi North 10.4 mph 17.3 mph N/A   Partly Cloudy
11:52 AM 73.0 °F 50.0 °F 44% 29.94 in 10.0 mi North 8.1 mph - N/A   Partly Cloudy
12:52 PM 73.9 °F 46.9 °F 38% 29.93 in 10.0 mi North 8.1 mph - N/A   Clear
1:52 PM 73.9 °F 46.0 °F 37% 29.91 in 10.0 mi Variable 4.6 mph - N/A   Partly Cloudy
2:52 PM 75.9 °F 46.0 °F 35% 29.90 in 10.0 mi NNE 5.8 mph - N/A   Partly Cloudy
3:52 PM 77.0 °F 48.0 °F 36% 29.89 in 10.0 mi NNE 8.1 mph - N/A   Clear
4:52 PM 77.0 °F 44.1 °F 31% 29.89 in 10.0 mi NW 5.8 mph - N/A   Clear
5:52 PM 75.0 °F 41.0 °F 29% 29.90 in 10.0 mi Variable 5.8 mph - N/A   Clear
6:52 PM 73.0 °F 41.0 °F 31% 29.92 in 10.0 mi NW 4.6 mph - N/A   Clear
7:52 PM 69.1 °F 43.0 °F 39% 29.94 in 10.0 mi Variable 3.5 mph - N/A   Clear
8:52 PM 68.0 °F 43.0 °F 40% 29.96 in 10.0 mi Variable 3.5 mph - N/A   Clear
9:52 PM 68.0 °F 42.1 °F 39% 29.98 in 10.0 mi North 5.8 mph - N/A   Clear
10:52 PM 68.0 °F 42.1 °F 39% 29.99 in 10.0 mi North 4.6 mph - N/A   Clear
11:52 PM 64.0 °F 46.9 °F 54% 30.00 in 10.0 mi NNW 4.6 mph - N/A   Clear